Time,TemperatureF,DewpointF,PressureIn,WindDirection,WindDirectionDegrees,WindSpeedMPH,WindSpeedGustMPH,Humidity,HourlyPrecipIn,Conditions,Clouds,dailyrainin,SoftwareType,DateUTC
2013-09-24 00:00:00,65.2,-99.9,29.91,East,93,0.0,0.0,-999,-99.99,,,-99.99,,2013-09-24 07:00:00,
2013-09-24 00:05:00,65.2,-99.9,29.91,East,93,0.0,0.0,-999,-99.99,,,-99.99,,2013-09-24 07:05:00,
2013-09-24 00:10:00,64.9,-99.9,29.91,East,93,0.0,0.0,-999,-99.99,,,-99.99,,2013-09-24 07:10:00,
2013-09-24 00:15:00,64.9,-99.9,29.91,East,93,0.0,0.0,-999,-99.99,,,-99.99,,2013-09-24 07:15:00,
2013-09-24 00:20:00,64.7,-99.9,29.91,East,93,0.0,0.0,-999,-99.99,,,-99.99,,2013-09-24 07:20:00,
2013-09-24 00:25:00,64.5,-99.9,29.91,East,93,0.0,0.0,-999,-99.99,,,-99.99,,2013-09-24 07:25:00,
2013-09-24 00:30:00,65.0,-99.9,29.91,East,93,0.0,0.0,-999,-99.99,,,-99.99,,2013-09-24 07:30:00,
2013-09-24 00:35:00,64.9,-99.9,29.91,East,93,0.0,0.0,-999,-99.99,,,-99.99,,2013-09-24 07:35:00,
2013-09-24 00:40:00,64.8,-99.9,29.91,East,93,0.0,0.0,-999,-99.99,,,-99.99,,2013-09-24 07:40:00,
2013-09-24 00:45:00,64.8,-99.9,29.91,East,93,0.0,0.0,-999,-99.99,,,-99.99,,2013-09-24 07:45:00,
2013-09-24 00:50:00,64.8,-99.9,29.91,East,93,0.0,0.0,-999,-99.99,,,-99.99,,2013-09-24 07:50:00,
2013-09-24 00:55:00,64.9,-99.9,29.91,East,93,0.0,0.0,-999,-99.99,,,-99.99,,2013-09-24 07:55:00,
2013-09-24 01:00:00,64.8,-99.9,29.91,East,93,0.0,0.0,-999,-99.99,,,-99.99,,2013-09-24 08:00:00,
2013-09-24 01:05:00,64.7,-99.9,29.91,East,93,0.0,0.0,-999,-99.99,,,-99.99,,2013-09-24 08:05:00,
2013-09-24 01:10:00,64.6,-99.9,29.91,East,93,0.0,0.0,-999,-99.99,,,-99.99,,2013-09-24 08:10:00,
2013-09-24 01:15:00,64.0,-99.9,29.92,East,93,0.0,0.0,-999,-99.99,,,-99.99,,2013-09-24 08:15:00,
2013-09-24 01:20:00,64.0,-99.9,29.92,East,93,0.0,0.0,-999,-99.99,,,-99.99,,2013-09-24 08:20:00,
2013-09-24 01:25:00,64.2,-99.9,29.92,East,93,0.0,0.0,-999,-99.99,,,-99.99,,2013-09-24 08:25:00,
2013-09-24 01:30:00,64.1,-99.9,29.92,East,93,0.0,0.0,-999,-99.99,,,-99.99,,2013-09-24 08:30:00,
2013-09-24 01:35:00,63.8,-99.9,29.91,East,93,0.0,0.0,-999,-99.99,,,-99.99,,2013-09-24 08:35:00,
2013-09-24 01:40:00,63.5,-99.9,29.91,East,93,0.0,0.0,-999,-99.99,,,-99.99,,2013-09-24 08:40:00,
2013-09-24 01:45:00,63.2,-99.9,29.91,East,93,0.0,0.0,-999,-99.99,,,-99.99,,2013-09-24 08:45:00,
2013-09-24 01:50:00,63.2,-99.9,29.91,East,93,0.0,0.0,-999,-99.99,,,-99.99,,2013-09-24 08:50:00,
2013-09-24 01:55:00,63.4,-99.9,29.91,East,93,0.0,0.0,-999,-99.99,,,-99.99,,2013-09-24 08:55:00,
2013-09-24 02:00:00,63.3,-99.9,29.91,East,93,0.0,0.0,-999,-99.99,,,-99.99,,2013-09-24 09:00:00,
2013-09-24 02:05:00,63.4,-99.9,29.91,East,93,0.0,0.0,-999,-99.99,,,-99.99,,2013-09-24 09:05:00,
2013-09-24 02:10:00,63.2,-99.9,29.91,East,93,0.0,0.0,-999,-99.99,,,-99.99,,2013-09-24 09:10:00,
2013-09-24 02:15:00,62.9,-99.9,29.91,East,93,0.0,0.0,-999,-99.99,,,-99.99,,2013-09-24 09:15:00,
2013-09-24 02:20:00,63.3,-99.9,29.91,East,93,0.0,0.0,-999,-99.99,,,-99.99,,2013-09-24 09:20:00,
2013-09-24 02:25:00,63.4,-99.9,29.91,East,93,0.0,0.0,-999,-99.99,,,-99.99,,2013-09-24 09:25:00,
2013-09-24 02:30:00,63.1,-99.9,29.91,East,93,0.0,0.0,-999,-99.99,,,-99.99,,2013-09-24 09:30:00,
2013-09-24 02:35:00,63.1,-99.9,29.91,East,93,0.0,0.0,-999,-99.99,,,-99.99,,2013-09-24 09:35:00,
2013-09-24 02:40:00,63.0,-99.9,29.91,East,93,0.0,0.0,-999,-99.99,,,-99.99,,2013-09-24 09:40:00,
2013-09-24 02:45:00,62.9,-99.9,29.91,East,80,0.0,0.0,-999,-99.99,,,-99.99,,2013-09-24 09:45:00,
2013-09-24 02:50:00,63.2,-99.9,29.91,East,80,0.0,0.0,-999,-99.99,,,-99.99,,2013-09-24 09:50:00,
2013-09-24 02:55:00,62.6,-99.9,29.91,East,101,0.0,0.0,-999,-99.99,,,-99.99,,2013-09-24 09:55:00,
2013-09-24 03:00:00,62.5,-99.9,29.90,East,101,0.0,0.0,-999,-99.99,,,-99.99,,2013-09-24 10:00:00,
2013-09-24 03:05:00,62.7,-99.9,29.90,East,101,0.0,0.0,-999,-99.99,,,-99.99,,2013-09-24 10:05:00,
2013-09-24 03:10:00,62.8,-99.9,29.90,East,101,0.0,0.0,-999,-99.99,,,-99.99,,2013-09-24 10:10:00,
2013-09-24 03:15:00,62.8,-99.9,29.90,East,101,0.0,0.0,-999,-99.99,,,-99.99,,2013-09-24 10:15:00,
2013-09-24 03:20:00,62.5,-99.9,29.90,East,101,0.0,0.0,-999,-99.99,,,-99.99,,2013-09-24 10:20:00,
2013-09-24 03:25:00,62.5,-99.9,29.90,East,101,0.0,0.0,-999,-99.99,,,-99.99,,2013-09-24 10:25:00,
2013-09-24 03:30:00,62.8,-99.9,29.90,East,101,0.0,0.0,-999,-99.99,,,-99.99,,2013-09-24 10:30:00,
2013-09-24 03:35:00,62.7,-99.9,29.90,East,101,0.0,0.0,-999,-99.99,,,-99.99,,2013-09-24 10:35:00,
2013-09-24 03:40:00,62.4,-99.9,29.90,East,101,0.0,0.0,-999,-99.99,,,-99.99,,2013-09-24 10:40:00,
2013-09-24 03:45:00,62.6,-99.9,29.90,East,101,0.0,0.0,-999,-99.99,,,-99.99,,2013-09-24 10:45:00,
2013-09-24 03:50:00,62.6,-99.9,29.90,East,101,0.0,0.0,-999,-99.99,,,-99.99,,2013-09-24 10:50:00,
2013-09-24 03:55:00,62.4,-99.9,29.90,East,101,0.0,0.0,-999,-99.99,,,-99.99,,2013-09-24 10:55:00,
2013-09-24 04:00:00,62.4,-99.9,29.89,East,101,0.0,0.0,-999,-99.99,,,-99.99,,2013-09-24 11:00:00,
2013-09-24 04:05:00,62.6,-99.9,29.90,East,101,0.0,0.0,-999,-99.99,,,-99.99,,2013-09-24 11:05:00,
2013-09-24 04:10:00,62.6,-99.9,29.90,East,101,0.0,0.0,-999,-99.99,,,-99.99,,2013-09-24 11:10:00,
2013-09-24 04:15:00,62.4,-99.9,29.90,East,101,0.0,0.0,-999,-99.99,,,-99.99,,2013-09-24 11:15:00,
2013-09-24 04:20:00,62.5,-99.9,29.90,East,101,0.0,0.0,-999,-99.99,,,-99.99,,2013-09-24 11:20:00,
2013-09-24 04:25:00,62.3,-99.9,29.90,East,101,0.0,0.0,-999,-99.99,,,-99.99,,2013-09-24 11:25:00,
2013-09-24 04:30:00,62.0,-99.9,29.90,East,101,0.0,0.0,-999,-99.99,,,-99.99,,2013-09-24 11:30:00,
2013-09-24 04:35:00,62.2,-99.9,29.90,East,101,0.0,0.0,-999,-99.99,,,-99.99,,2013-09-24 11:35:00,
2013-09-24 04:40:00,62.2,-99.9,29.90,East,101,0.0,0.0,-999,-99.99,,,-99.99,,2013-09-24 11:40:00,
2013-09-24 04:45:00,61.8,-99.9,29.90,East,101,0.0,0.0,-999,-99.99,,,-99.99,,2013-09-24 11:45:00,
2013-09-24 04:50:00,61.8,-99.9,29.90,East,101,0.0,0.0,-999,-99.99,,,-99.99,,2013-09-24 11:50:00,
2013-09-24 04:55:00,61.8,-99.9,29.90,East,101,0.0,0.0,-999,-99.99,,,-99.99,,2013-09-24 11:55:00,
2013-09-24 05:00:00,62.0,-99.9,29.90,East,101,0.0,0.0,-999,-99.99,,,-99.99,,2013-09-24 12:00:00,
2013-09-24 05:05:00,61.8,-99.9,29.90,East,101,0.0,0.0,-999,-99.99,,,-99.99,,2013-09-24 12:05:00,
2013-09-24 05:10:00,61.6,-99.9,29.90,East,101,0.0,0.0,-999,-99.99,,,-99.99,,2013-09-24 12:10:00,
2013-09-24 05:15:00,62.0,-99.9,29.90,East,101,0.0,0.0,-999,-99.99,,,-99.99,,2013-09-24 12:15:00,
2013-09-24 05:20:00,62.1,-99.9,29.90,East,101,0.0,0.0,-999,-99.99,,,-99.99,,2013-09-24 12:20:00,
2013-09-24 05:25:00,61.6,-99.9,29.90,East,101,0.0,0.0,-999,-99.99,,,-99.99,,2013-09-24 12:25:00,
2013-09-24 05:30:00,61.6,-99.9,29.90,East,101,0.0,0.0,-999,-99.99,,,-99.99,,2013-09-24 12:30:00,
2013-09-24 05:35:00,61.5,-99.9,29.90,East,101,0.0,0.0,-999,-99.99,,,-99.99,,2013-09-24 12:35:00,
2013-09-24 05:40:00,61.5,-99.9,29.90,East,101,0.0,0.0,-999,-99.99,,,-99.99,,2013-09-24 12:40:00,
2013-09-24 05:45:00,61.4,-99.9,29.90,East,101,0.0,0.0,-999,-99.99,,,-99.99,,2013-09-24 12:45:00,
2013-09-24 05:50:00,61.5,-99.9,29.90,East,101,0.0,0.0,-999,-99.99,,,-99.99,,2013-09-24 12:50:00,
2013-09-24 05:55:00,61.8,-99.9,29.90,East,101,0.0,0.0,-999,-99.99,,,-99.99,,2013-09-24 12:55:00,
2013-09-24 06:00:00,61.7,-99.9,29.91,East,101,0.0,0.0,-999,-99.99,,,-99.99,,2013-09-24 13:00:00,
2013-09-24 06:05:00,61.8,-99.9,29.90,East,101,0.0,0.0,-999,-99.99,,,-99.99,,2013-09-24 13:05:00,
2013-09-24 06:10:00,61.7,-99.9,29.91,East,90,0.0,0.0,-999,-99.99,,,-99.99,,2013-09-24 13:10:00,
2013-09-24 06:15:00,61.7,-99.9,29.91,SE,128,0.0,0.0,-999,-99.99,,,-99.99,,2013-09-24 13:15:00,
2013-09-24 06:20:00,61.7,-99.9,29.91,SE,128,0.0,0.0,-999,-99.99,,,-99.99,,2013-09-24 13:20:00,
2013-09-24 06:25:00,61.8,-99.9,29.91,SE,128,0.0,0.0,-999,-99.99,,,-99.99,,2013-09-24 13:25:00,
2013-09-24 06:30:00,61.5,-99.9,29.91,SE,125,0.0,0.0,-999,-99.99,,,-99.99,,2013-09-24 13:30:00,
2013-09-24 06:35:00,61.5,-99.9,29.91,SE,125,0.0,0.0,-999,-99.99,,,-99.99,,2013-09-24 13:35:00,
2013-09-24 06:40:00,61.6,-99.9,29.91,SE,125,0.0,0.0,-999,-99.99,,,-99.99,,2013-09-24 13:40:00,
2013-09-24 06:45:00,61.7,-99.9,29.91,SE,125,0.0,0.0,-999,-99.99,,,-99.99,,2013-09-24 13:45:00,
2013-09-24 06:50:00,61.4,-99.9,29.91,WSW,251,0.0,0.0,-999,-99.99,,,-99.99,,2013-09-24 13:50:00,
2013-09-24 06:55:00,61.4,-99.9,29.91,WSW,251,0.0,0.0,-999,-99.99,,,-99.99,,2013-09-24 13:55:00,
2013-09-24 07:00:00,61.5,-99.9,29.91,SSE,163,0.0,13.7,-999,-99.99,,,-99.99,,2013-09-24 14:00:00,
2013-09-24 07:05:00,61.5,-99.9,29.91,North,359,0.0,0.0,-999,-99.99,,,-99.99,,2013-09-24 14:05:00,
2013-09-24 07:10:00,61.6,-99.9,29.91,North,359,0.0,0.0,-999,-99.99,,,-99.99,,2013-09-24 14:10:00,
2013-09-24 07:15:00,61.4,-99.9,29.91,North,359,0.0,0.0,-999,-99.99,,,-99.99,,2013-09-24 14:15:00,
2013-09-24 07:20:00,61.5,-99.9,29.91,North,359,0.0,0.0,-999,-99.99,,,-99.99,,2013-09-24 14:20:00,
2013-09-24 07:25:00,61.4,-99.9,29.91,West,273,0.0,0.0,-999,-99.99,,,-99.99,,2013-09-24 14:25:00,
2013-09-24 07:30:00,61.5,-99.9,29.91,SSW,213,0.0,8.4,-999,-99.99,,,-99.99,,2013-09-24 14:30:00,
2013-09-24 07:35:00,61.6,-99.9,29.91,SW,220,0.0,0.0,-999,-99.99,,,-99.99,,2013-09-24 14:35:00,
2013-09-24 07:40:00,61.7,-99.9,29.92,SW,220,0.0,0.0,-999,-99.99,,,-99.99,,2013-09-24 14:40:00,
2013-09-24 07:45:00,61.7,-99.9,29.92,SW,220,0.0,0.0,-999,-99.99,,,-99.99,,2013-09-24 14:45:00,
2013-09-24 07:50:00,61.7,-99.9,29.92,SW,220,0.0,0.0,-999,-99.99,,,-99.99,,2013-09-24 14:50:00,
2013-09-24 07:55:00,61.8,-99.9,29.92,WSW,248,0.0,7.7,-999,-99.99,,,-99.99,,2013-09-24 14:55:00,
2013-09-24 08:00:00,61.8,-99.9,29.92,NNW,347,0.0,19.8,-999,-99.99,,,-99.99,,2013-09-24 15:00:00,
2013-09-24 08:05:00,61.8,-99.9,29.92,SSW,200,0.0,0.0,-999,-99.99,,,-99.99,,2013-09-24 15:05:00,
2013-09-24 08:10:00,61.8,-99.9,29.92,WSW,242,0.0,15.1,-999,-99.99,,,-99.99,,2013-09-24 15:10:00,
2013-09-24 08:15:00,61.9,-99.9,29.92,WSW,244,0.0,0.0,-999,-99.99,,,-99.99,,2013-09-24 15:15:00,
2013-09-24 08:20:00,62.0,-99.9,29.92,WNW,283,0.0,12.7,-999,-99.99,,,-99.99,,2013-09-24 15:20:00,
2013-09-24 08:25:00,62.0,-99.9,29.92,WSW,251,0.0,0.0,-999,-99.99,,,-99.99,,2013-09-24 15:25:00,
2013-09-24 08:30:00,62.2,-99.9,29.92,WSW,251,0.0,0.0,-999,-99.99,,,-99.99,,2013-09-24 15:30:00,
2013-09-24 08:35:00,62.2,-99.9,29.92,WSW,251,0.0,0.0,-999,-99.99,,,-99.99,,2013-09-24 15:35:00,
2013-09-24 08:40:00,62.2,-99.9,29.92,WSW,251,0.0,0.0,-999,-99.99,,,-99.99,,2013-09-24 15:40:00,
2013-09-24 08:45:00,62.3,-99.9,29.92,WSW,251,0.0,0.0,-999,-99.99,,,-99.99,,2013-09-24 15:45:00,
2013-09-24 08:50:00,62.3,-99.9,29.92,West,266,0.0,0.0,-999,-99.99,,,-99.99,,2013-09-24 15:50:00,
2013-09-24 08:55:00,62.4,-99.9,29.92,West,266,0.0,0.0,-999,-99.99,,,-99.99,,2013-09-24 15:55:00,
2013-09-24 09:00:00,62.4,-99.9,29.92,West,266,0.0,0.0,-999,-99.99,,,-99.99,,2013-09-24 16:00:00,
2013-09-24 09:05:00,62.5,-99.9,29.92,SE,138,11.1,11.6,-999,-99.99,,,-99.99,,2013-09-24 16:05:00,
2013-09-24 09:10:00,62.5,-99.9,29.93,ENE,77,0.0,0.0,-999,-99.99,,,-99.99,,2013-09-24 16:10:00,
2013-09-24 09:15:00,62.5,-99.9,29.93,ENE,77,0.0,0.0,-999,-99.99,,,-99.99,,2013-09-24 16:15:00,
2013-09-24 09:20:00,62.4,-99.9,29.93,WNW,295,0.0,8.5,-999,-99.99,,,-99.99,,2013-09-24 16:20:00,
2013-09-24 09:25:00,62.4,-99.9,29.93,West,259,0.0,0.0,-999,-99.99,,,-99.99,,2013-09-24 16:25:00,
2013-09-24 09:30:00,62.4,-99.9,29.93,WNW,283,0.0,8.5,-999,-99.99,,,-99.99,,2013-09-24 16:30:00,
2013-09-24 09:35:00,62.4,-99.9,29.93,WNW,283,0.0,7.4,-999,-99.99,,,-99.99,,2013-09-24 16:35:00,
2013-09-24 09:40:00,62.5,-99.9,29.93,WNW,283,0.0,0.0,-999,-99.99,,,-99.99,,2013-09-24 16:40:00,
2013-09-24 09:45:00,62.7,-99.9,29.94,East,81,14.0,14.0,-999,-99.99,,,-99.99,,2013-09-24 16:45:00,
2013-09-24 09:50:00,62.8,-99.9,29.95,SW,214,0.0,15.8,-999,-99.99,,,-99.99,,2013-09-24 16:50:00,
2013-09-24 09:55:00,62.8,-99.9,29.95,SW,214,0.0,0.0,-999,-99.99,,,-99.99,,2013-09-24 16:55:00,
2013-09-24 10:00:00,62.9,-99.9,29.95,South,172,0.0,10.8,-999,-99.99,,,-99.99,,2013-09-24 17:00:00,
2013-09-24 10:05:00,62.9,-99.9,29.96,NNW,330,13.7,17.7,-999,-99.99,,,-99.99,,2013-09-24 17:05:00,
2013-09-24 10:10:00,63.0,-99.9,29.96,SW,232,0.0,0.0,-999,-99.99,,,-99.99,,2013-09-24 17:10:00,
2013-09-24 10:15:00,63.0,-99.9,29.96,WNW,293,7.7,22.5,-999,-99.99,,,-99.99,,2013-09-24 17:15:00,
2013-09-24 10:20:00,63.1,-99.9,29.95,NW,304,0.0,0.0,-999,-99.99,,,-99.99,,2013-09-24 17:20:00,
2013-09-24 10:25:00,63.3,-99.9,29.95,NNW,335,13.2,13.2,-999,-99.99,,,-99.99,,2013-09-24 17:25:00,
2013-09-24 10:30:00,63.4,-99.9,29.95,NNW,338,7.7,10.8,-999,-99.99,,,-99.99,,2013-09-24 17:30:00,
2013-09-24 10:35:00,63.5,-99.9,29.95,NNW,330,8.9,10.8,-999,-99.99,,,-99.99,,2013-09-24 17:35:00,
2013-09-24 10:40:00,63.6,-99.9,29.95,WNW,290,19.3,19.3,-999,-99.99,,,-99.99,,2013-09-24 17:40:00,
2013-09-24 10:45:00,63.7,-99.9,29.95,West,272,4.3,4.3,-999,-99.99,,,-99.99,,2013-09-24 17:45:00,
2013-09-24 10:50:00,63.9,-99.9,29.95,WSW,254,7.6,10.8,-999,-99.99,,,-99.99,,2013-09-24 17:50:00,
2013-09-24 10:55:00,64.0,-99.9,29.95,WNW,303,9.0,15.4,-999,-99.99,,,-99.99,,2013-09-24 17:55:00,
2013-09-24 11:00:00,64.2,-99.9,29.95,WNW,289,0.0,15.1,-999,-99.99,,,-99.99,,2013-09-24 18:00:00,
2013-09-24 11:05:00,64.3,-99.9,29.95,WNW,295,11.4,24.5,-999,-99.99,,,-99.99,,2013-09-24 18:05:00,
2013-09-24 11:10:00,64.2,-99.9,29.95,WNW,287,18.2,18.2,-999,-99.99,,,-99.99,,2013-09-24 18:10:00,
2013-09-24 11:15:00,64.4,-99.9,29.95,WSW,249,9.0,9.0,-999,-99.99,,,-99.99,,2013-09-24 18:15:00,
2013-09-24 11:20:00,64.3,-99.9,29.95,NNW,341,6.3,6.3,-999,-99.99,,,-99.99,,2013-09-24 18:20:00,
2013-09-24 11:25:00,64.3,-99.9,29.95,NW,321,8.9,10.9,-999,-99.99,,,-99.99,,2013-09-24 18:25:00,
2013-09-24 11:30:00,64.6,-99.9,29.95,SSW,200,0.0,0.0,-999,-99.99,,,-99.99,,2013-09-24 18:30:00,
2013-09-24 11:35:00,65.0,-99.9,29.95,SSE,162,0.0,10.6,-999,-99.99,,,-99.99,,2013-09-24 18:35:00,
2013-09-24 11:40:00,64.9,-99.9,29.95,South,180,14.6,15.9,-999,-99.99,,,-99.99,,2013-09-24 18:40:00,
2013-09-24 11:45:00,64.8,-99.9,29.95,SSW,197,0.0,6.1,-999,-99.99,,,-99.99,,2013-09-24 18:45:00,
2013-09-24 11:50:00,64.9,-99.9,29.95,WSW,255,8.0,16.1,-999,-99.99,,,-99.99,,2013-09-24 18:50:00,
2013-09-24 11:55:00,64.9,-99.9,29.95,NW,320,0.0,0.0,-999,-99.99,,,-99.99,,2013-09-24 18:55:00,
2013-09-24 12:00:00,65.1,-99.9,29.95,NW,310,0.0,12.9,-999,-99.99,,,-99.99,,2013-09-24 19:00:00,
2013-09-24 12:05:00,65.2,-99.9,29.95,NW,324,0.0,7.7,-999,-99.99,,,-99.99,,2013-09-24 19:05:00,
2013-09-24 12:10:00,65.3,-99.9,29.94,WNW,289,10.9,15.1,-999,-99.99,,,-99.99,,2013-09-24 19:10:00,
2013-09-24 12:15:00,65.3,-99.9,29.94,West,259,0.0,0.0,-999,-99.99,,,-99.99,,2013-09-24 19:15:00,
2013-09-24 12:20:00,65.6,-99.9,29.95,NW,309,0.0,7.7,-999,-99.99,,,-99.99,,2013-09-24 19:20:00,
2013-09-24 12:25:00,65.6,-99.9,29.94,SSW,197,0.0,0.0,-999,-99.99,,,-99.99,,2013-09-24 19:25:00,
2013-09-24 12:30:00,65.7,-99.9,29.95,South,184,11.3,15.9,-999,-99.99,,,-99.99,,2013-09-24 19:30:00,
2013-09-24 12:35:00,65.7,-99.9,29.95,SW,217,0.0,0.0,-999,-99.99,,,-99.99,,2013-09-24 19:35:00,
2013-09-24 12:40:00,65.7,-99.9,29.94,West,271,0.0,6.0,-999,-99.99,,,-99.99,,2013-09-24 19:40:00,
2013-09-24 12:45:00,65.8,-99.9,29.95,West,271,0.0,0.0,-999,-99.99,,,-99.99,,2013-09-24 19:45:00,
2013-09-24 12:50:00,66.0,-99.9,29.94,SE,142,0.0,0.0,-999,-99.99,,,-99.99,,2013-09-24 19:50:00,
2013-09-24 12:55:00,66.2,-99.9,29.94,South,186,0.0,17.2,-999,-99.99,,,-99.99,,2013-09-24 19:55:00,
2013-09-24 13:00:00,66.3,-99.9,29.94,NNW,344,9.0,13.0,-999,-99.99,,,-99.99,,2013-09-24 20:00:00,
2013-09-24 13:05:00,66.3,-99.9,29.94,WSW,244,0.0,0.0,-999,-99.99,,,-99.99,,2013-09-24 20:05:00,
2013-09-24 13:10:00,66.5,-99.9,29.93,SW,228,0.0,0.0,-999,-99.99,,,-99.99,,2013-09-24 20:10:00,
2013-09-24 13:15:00,66.7,-99.9,29.93,WNW,289,17.1,21.6,-999,-99.99,,,-99.99,,2013-09-24 20:15:00,
2013-09-24 13:20:00,66.8,-99.9,29.93,NW,310,12.4,13.2,-999,-99.99,,,-99.99,,2013-09-24 20:20:00,
2013-09-24 13:25:00,67.0,-99.9,29.93,WNW,295,9.0,11.3,-999,-99.99,,,-99.99,,2013-09-24 20:25:00,
2013-09-24 13:30:00,67.0,-99.9,29.92,West,262,0.0,0.0,-999,-99.99,,,-99.99,,2013-09-24 20:30:00,
2013-09-24 13:35:00,67.1,-99.9,29.91,WNW,300,12.4,19.6,-999,-99.99,,,-99.99,,2013-09-24 20:35:00,
2013-09-24 13:40:00,67.2,-99.9,29.91,South,191,0.0,0.0,-999,-99.99,,,-99.99,,2013-09-24 20:40:00,
2013-09-24 13:45:00,67.2,-99.9,29.91,NNW,333,0.0,0.0,-999,-99.99,,,-99.99,,2013-09-24 20:45:00,
2013-09-24 13:50:00,67.5,-99.9,29.91,North,359,8.9,11.6,-999,-99.99,,,-99.99,,2013-09-24 20:50:00,
2013-09-24 13:55:00,67.9,-99.9,29.91,SSE,153,0.0,0.0,-999,-99.99,,,-99.99,,2013-09-24 20:55:00,
2013-09-24 14:00:00,67.9,-99.9,29.91,SW,231,0.0,8.9,-999,-99.99,,,-99.99,,2013-09-24 21:00:00,
2013-09-24 14:05:00,68.1,-99.9,29.90,WSW,237,10.8,17.1,-999,-99.99,,,-99.99,,2013-09-24 21:05:00,
2013-09-24 14:10:00,68.0,-99.9,29.90,SSE,151,0.0,7.2,-999,-99.99,,,-99.99,,2013-09-24 21:10:00,
2013-09-24 14:15:00,68.1,-99.9,29.90,NW,326,0.0,0.0,-999,-99.99,,,-99.99,,2013-09-24 21:15:00,
2013-09-24 14:20:00,68.3,-99.9,29.90,NW,307,8.0,12.2,-999,-99.99,,,-99.99,,2013-09-24 21:20:00,
2013-09-24 14:25:00,68.5,-99.9,29.90,WNW,287,0.0,13.8,-999,-99.99,,,-99.99,,2013-09-24 21:25:00,
2013-09-24 14:30:00,68.6,-99.9,29.90,West,262,0.0,14.3,-999,-99.99,,,-99.99,,2013-09-24 21:30:00,
2013-09-24 14:35:00,68.6,-99.9,29.90,WNW,286,0.0,8.4,-999,-99.99,,,-99.99,,2013-09-24 21:35:00,
2013-09-24 14:40:00,68.6,-99.9,29.90,West,275,8.0,14.0,-999,-99.99,,,-99.99,,2013-09-24 21:40:00,
2013-09-24 14:45:00,68.6,-99.9,29.90,WNW,295,13.5,20.4,-999,-99.99,,,-99.99,,2013-09-24 21:45:00,
2013-09-24 14:50:00,68.6,-99.9,29.90,West,268,0.0,9.0,-999,-99.99,,,-99.99,,2013-09-24 21:50:00,
2013-09-24 14:55:00,69.0,-99.9,29.90,NW,321,11.9,16.9,-999,-99.99,,,-99.99,,2013-09-24 21:55:00,
2013-09-24 15:00:00,69.0,-99.9,29.90,SW,223,0.0,16.6,-999,-99.99,,,-99.99,,2013-09-24 22:00:00,
2013-09-24 15:05:00,69.2,-99.9,29.90,SSE,156,0.0,0.0,-999,-99.99,,,-99.99,,2013-09-24 22:05:00,
2013-09-24 15:10:00,69.2,-99.9,29.90,North,5,0.0,0.0,-999,-99.99,,,-99.99,,2013-09-24 22:10:00,
2013-09-24 15:15:00,69.5,-99.9,29.89,SSW,197,0.0,8.4,-999,-99.99,,,-99.99,,2013-09-24 22:15:00,
2013-09-24 15:20:00,69.4,-99.9,29.89,WNW,292,0.0,0.0,-999,-99.99,,,-99.99,,2013-09-24 22:20:00,
2013-09-24 15:25:00,69.7,-99.9,29.90,WNW,292,0.0,8.5,-999,-99.99,,,-99.99,,2013-09-24 22:25:00,
2013-09-24 15:30:00,69.7,-99.9,29.90,SSE,160,8.5,16.4,-999,-99.99,,,-99.99,,2013-09-24 22:30:00,
2013-09-24 15:35:00,69.6,-99.9,29.90,NW,314,8.7,15.0,-999,-99.99,,,-99.99,,2013-09-24 22:35:00,
2013-09-24 15:40:00,69.6,-99.9,29.90,NW,307,8.7,8.7,-999,-99.99,,,-99.99,,2013-09-24 22:40:00,
2013-09-24 15:45:00,69.5,-99.9,29.90,WSW,249,0.0,10.9,-999,-99.99,,,-99.99,,2013-09-24 22:45:00,
2013-09-24 15:50:00,69.3,-99.9,29.90,WSW,255,8.7,23.7,-999,-99.99,,,-99.99,,2013-09-24 22:50:00,
2013-09-24 15:55:00,69.3,-99.9,29.89,WSW,258,0.0,9.0,-999,-99.99,,,-99.99,,2013-09-24 22:55:00,
2013-09-24 16:00:00,69.3,-99.9,29.89,WNW,282,7.1,8.2,-999,-99.99,,,-99.99,,2013-09-24 23:00:00,
2013-09-24 16:05:00,69.4,-99.9,29.89,SW,230,13.4,19.0,-999,-99.99,,,-99.99,,2013-09-24 23:05:00,
2013-09-24 16:10:00,69.4,-99.9,29.90,WSW,254,7.2,9.0,-999,-99.99,,,-99.99,,2013-09-24 23:10:00,
2013-09-24 16:15:00,69.4,-99.9,29.90,NW,321,8.7,16.7,-999,-99.99,,,-99.99,,2013-09-24 23:15:00,
2013-09-24 16:20:00,69.3,-99.9,29.90,West,278,8.9,27.2,-999,-99.99,,,-99.99,,2013-09-24 23:20:00,
2013-09-24 16:25:00,69.3,-99.9,29.89,WSW,237,0.0,16.3,-999,-99.99,,,-99.99,,2013-09-24 23:25:00,
2013-09-24 16:30:00,69.1,-99.9,29.89,WNW,299,13.4,14.8,-999,-99.99,,,-99.99,,2013-09-24 23:30:00,
2013-09-24 16:35:00,68.9,-99.9,29.89,WNW,300,18.3,24.6,-999,-99.99,,,-99.99,,2013-09-24 23:35:00,
2013-09-24 16:40:00,68.8,-99.9,29.89,West,265,16.4,29.6,-999,-99.99,,,-99.99,,2013-09-24 23:40:00,
2013-09-24 16:45:00,68.8,-99.9,29.89,West,275,21.1,26.7,-999,-99.99,,,-99.99,,2013-09-24 23:45:00,
2013-09-24 16:50:00,68.8,-99.9,29.90,NW,321,9.0,15.9,-999,-99.99,,,-99.99,,2013-09-24 23:50:00,
2013-09-24 16:55:00,68.7,-99.9,29.90,WNW,303,12.2,20.6,-999,-99.99,,,-99.99,,2013-09-24 23:55:00,
2013-09-24 17:00:00,68.4,-99.9,29.89,WNW,285,16.3,35.2,-999,-99.99,,,-99.99,,2013-09-25 00:00:00,
2013-09-24 17:05:00,68.4,-99.9,29.89,WNW,300,13.7,13.7,-999,-99.99,,,-99.99,,2013-09-25 00:05:00,
2013-09-24 17:10:00,68.5,-99.9,29.89,West,259,18.0,38.3,-999,-99.99,,,-99.99,,2013-09-25 00:10:00,
2013-09-24 17:15:00,68.5,-99.9,29.90,WNW,292,16.6,30.1,-999,-99.99,,,-99.99,,2013-09-25 00:15:00,
2013-09-24 17:20:00,68.5,-99.9,29.90,WNW,282,16.9,34.1,-999,-99.99,,,-99.99,,2013-09-25 00:20:00,
2013-09-24 17:25:00,68.3,-99.9,29.90,WNW,285,19.2,28.0,-999,-99.99,,,-99.99,,2013-09-25 00:25:00,
2013-09-24 17:30:00,68.1,-99.9,29.90,NW,304,17.2,23.0,-999,-99.99,,,-99.99,,2013-09-25 00:30:00,
2013-09-24 17:35:00,68.0,-99.9,29.89,NW,311,20.1,21.1,-999,-99.99,,,-99.99,,2013-09-25 00:35:00,
2013-09-24 17:40:00,67.7,-99.9,29.89,WNW,299,15.8,29.5,-999,-99.99,,,-99.99,,2013-09-25 00:40:00,
2013-09-24 17:45:00,67.7,-99.9,29.89,West,275,0.0,26.9,-999,-99.99,,,-99.99,,2013-09-25 00:45:00,
2013-09-24 17:50:00,67.7,-99.9,29.89,North,355,13.8,20.0,-999,-99.99,,,-99.99,,2013-09-25 00:50:00,
2013-09-24 17:55:00,67.4,-99.9,29.89,NNW,338,0.0,17.1,-999,-99.99,,,-99.99,,2013-09-25 00:55:00,
2013-09-24 18:00:00,67.7,-99.9,29.89,SW,225,0.0,8.5,-999,-99.99,,,-99.99,,2013-09-25 01:00:00,
2013-09-24 18:05:00,67.5,-99.9,29.89,WNW,293,15.3,17.2,-999,-99.99,,,-99.99,,2013-09-25 01:05:00,
2013-09-24 18:10:00,67.6,-99.9,29.89,NW,306,8.5,8.7,-999,-99.99,,,-99.99,,2013-09-25 01:10:00,
2013-09-24 18:15:00,67.3,-99.9,29.88,West,266,0.0,15.9,-999,-99.99,,,-99.99,,2013-09-25 01:15:00,
2013-09-24 18:20:00,67.2,-99.9,29.88,SSW,193,8.9,13.0,-999,-99.99,,,-99.99,,2013-09-25 01:20:00,
2013-09-24 18:25:00,67.1,-99.9,29.88,West,271,17.1,20.1,-999,-99.99,,,-99.99,,2013-09-25 01:25:00,
2013-09-24 18:30:00,66.7,-99.9,29.88,NW,323,0.0,11.3,-999,-99.99,,,-99.99,,2013-09-25 01:30:00,
2013-09-24 18:35:00,66.5,-99.9,29.88,West,272,11.3,13.8,-999,-99.99,,,-99.99,,2013-09-25 01:35:00,
2013-09-24 18:40:00,66.4,-99.9,29.88,North,359,8.0,13.4,-999,-99.99,,,-99.99,,2013-09-25 01:40:00,
2013-09-24 18:45:00,66.0,-99.9,29.88,WSW,237,14.5,33.0,-999,-99.99,,,-99.99,,2013-09-25 01:45:00,
2013-09-24 18:50:00,65.8,-99.9,29.88,WNW,286,12.9,15.4,-999,-99.99,,,-99.99,,2013-09-25 01:50:00,
2013-09-24 18:55:00,65.6,-99.9,29.88,WSW,244,29.1,29.1,-999,-99.99,,,-99.99,,2013-09-25 01:55:00,
2013-09-24 19:00:00,65.5,-99.9,29.88,WNW,283,15.9,17.1,-999,-99.99,,,-99.99,,2013-09-25 02:00:00,
2013-09-24 19:05:00,65.6,-99.9,29.88,WNW,302,8.7,8.7,-999,-99.99,,,-99.99,,2013-09-25 02:05:00,
2013-09-24 19:10:00,64.9,-99.9,29.88,West,263,13.5,23.2,-999,-99.99,,,-99.99,,2013-09-25 02:10:00,
2013-09-24 19:15:00,65.0,-99.9,29.87,WSW,249,6.4,15.6,-999,-99.99,,,-99.99,,2013-09-25 02:15:00,
2013-09-24 19:20:00,64.8,-99.9,29.87,NW,316,11.3,35.9,-999,-99.99,,,-99.99,,2013-09-25 02:20:00,
2013-09-24 19:25:00,64.6,-99.9,29.87,NNW,338,10.6,31.1,-999,-99.99,,,-99.99,,2013-09-25 02:25:00,
2013-09-24 19:30:00,64.6,-99.9,29.87,WNW,300,8.5,18.2,-999,-99.99,,,-99.99,,2013-09-25 02:30:00,
2013-09-24 19:35:00,64.3,-99.9,29.87,NW,311,11.6,11.6,-999,-99.99,,,-99.99,,2013-09-25 02:35:00,
2013-09-24 19:40:00,64.2,-99.9,29.87,WNW,283,16.4,28.3,-999,-99.99,,,-99.99,,2013-09-25 02:40:00,
2013-09-24 19:45:00,64.2,-99.9,29.86,West,262,7.6,18.2,-999,-99.99,,,-99.99,,2013-09-25 02:45:00,
2013-09-24 19:50:00,64.2,-99.9,29.86,NW,310,11.3,11.3,-999,-99.99,,,-99.99,,2013-09-25 02:50:00,
2013-09-24 19:55:00,63.8,-99.9,29.86,WSW,244,22.5,32.8,-999,-99.99,,,-99.99,,2013-09-25 02:55:00,
2013-09-24 20:00:00,63.4,-99.9,29.87,WNW,303,13.2,24.8,-999,-99.99,,,-99.99,,2013-09-25 03:00:00,
2013-09-24 20:05:00,63.2,-99.9,29.86,West,272,20.1,25.6,-999,-99.99,,,-99.99,,2013-09-25 03:05:00,
2013-09-24 20:10:00,63.1,-99.9,29.86,West,261,24.8,29.6,-999,-99.99,,,-99.99,,2013-09-25 03:10:00,
2013-09-24 20:15:00,63.1,-99.9,29.86,SW,232,13.5,20.1,-999,-99.99,,,-99.99,,2013-09-25 03:15:00,
2013-09-24 20:20:00,63.4,-99.9,29.86,WNW,296,12.7,18.8,-999,-99.99,,,-99.99,,2013-09-25 03:20:00,
2013-09-24 20:25:00,63.2,-99.9,29.86,West,266,8.9,9.0,-999,-99.99,,,-99.99,,2013-09-25 03:25:00,
2013-09-24 20:30:00,62.8,-99.9,29.87,West,280,23.7,27.0,-999,-99.99,,,-99.99,,2013-09-25 03:30:00,
2013-09-24 20:35:00,62.9,-99.9,29.87,West,271,14.2,23.5,-999,-99.99,,,-99.99,,2013-09-25 03:35:00,
2013-09-24 20:40:00,62.8,-99.9,29.87,West,261,13.8,17.5,-999,-99.99,,,-99.99,,2013-09-25 03:40:00,
2013-09-24 20:45:00,62.8,-99.9,29.87,SSE,151,13.5,24.5,-999,-99.99,,,-99.99,,2013-09-25 03:45:00,
2013-09-24 20:50:00,62.6,-99.9,29.87,WNW,289,20.0,25.9,-999,-99.99,,,-99.99,,2013-09-25 03:50:00,
2013-09-24 20:55:00,62.4,-99.9,29.87,WNW,293,15.4,22.4,-999,-99.99,,,-99.99,,2013-09-25 03:55:00,
2013-09-24 21:00:00,62.3,-99.9,29.87,WNW,302,10.8,19.2,-999,-99.99,,,-99.99,,2013-09-25 04:00:00,
2013-09-24 21:05:00,62.3,-99.9,29.88,WSW,252,18.2,18.2,-999,-99.99,,,-99.99,,2013-09-25 04:05:00,
2013-09-24 21:10:00,62.1,-99.9,29.87,West,276,9.0,20.0,-999,-99.99,,,-99.99,,2013-09-25 04:10:00,
2013-09-24 21:20:00,62.0,-99.9,29.88,West,271,8.7,24.9,-999,-99.99,,,-99.99,,2013-09-25 04:20:00,
2013-09-24 21:25:00,62.1,-99.9,29.88,West,276,11.6,13.8,-999,-99.99,,,-99.99,,2013-09-25 04:25:00,
2013-09-24 21:30:00,62.0,-99.9,29.88,WSW,238,7.6,17.9,-999,-99.99,,,-99.99,,2013-09-25 04:30:00,
2013-09-24 21:35:00,62.1,-99.9,29.88,WNW,300,14.2,14.2,-999,-99.99,,,-99.99,,2013-09-25 04:35:00,
2013-09-24 21:40:00,61.9,-99.9,29.88,WSW,241,17.2,17.4,-999,-99.99,,,-99.99,,2013-09-25 04:40:00,
2013-09-24 21:45:00,62.0,-99.9,29.88,NW,324,7.7,11.4,-999,-99.99,,,-99.99,,2013-09-25 04:45:00,
2013-09-24 21:50:00,61.9,-99.9,29.87,WNW,283,14.2,14.2,-999,-99.99,,,-99.99,,2013-09-25 04:50:00,
2013-09-24 21:55:00,61.6,-99.9,29.87,WNW,302,12.9,23.3,-999,-99.99,,,-99.99,,2013-09-25 04:55:00,
2013-09-24 22:00:00,61.5,-99.9,29.87,WNW,300,11.3,20.4,-999,-99.99,,,-99.99,,2013-09-25 05:00:00,
2013-09-24 22:05:00,61.5,-99.9,29.87,NW,304,0.0,8.4,-999,-99.99,,,-99.99,,2013-09-25 05:05:00,
2013-09-24 22:10:00,61.6,-99.9,29.87,WNW,293,8.4,8.4,-999,-99.99,,,-99.99,,2013-09-25 05:10:00,
2013-09-24 22:15:00,61.4,-99.9,29.87,WSW,245,0.0,7.6,-999,-99.99,,,-99.99,,2013-09-25 05:15:00,
2013-09-24 22:20:00,61.3,-99.9,29.88,NW,314,0.0,7.6,-999,-99.99,,,-99.99,,2013-09-25 05:20:00,
2013-09-24 22:25:00,61.2,-99.9,29.88,North,355,0.0,8.5,-999,-99.99,,,-99.99,,2013-09-25 05:25:00,
2013-09-24 22:30:00,61.5,-99.9,29.88,WNW,287,11.9,12.1,-999,-99.99,,,-99.99,,2013-09-25 05:30:00,
2013-09-24 22:35:00,61.4,-99.9,29.88,NNW,328,0.0,0.0,-999,-99.99,,,-99.99,,2013-09-25 05:35:00,
2013-09-24 22:40:00,61.0,-99.9,29.88,NW,306,16.3,19.2,-999,-99.99,,,-99.99,,2013-09-25 05:40:00,
2013-09-24 22:45:00,60.8,-99.9,29.88,WNW,300,8.2,15.0,-999,-99.99,,,-99.99,,2013-09-25 05:45:00,
2013-09-24 22:50:00,60.8,-99.9,29.88,West,259,20.6,20.6,-999,-99.99,,,-99.99,,2013-09-25 05:50:00,
2013-09-24 22:55:00,60.7,-99.9,29.88,WNW,286,15.4,26.6,-999,-99.99,,,-99.99,,2013-09-25 05:55:00,
2013-09-24 23:00:00,60.6,-99.9,29.88,NW,309,11.4,22.0,-999,-99.99,,,-99.99,,2013-09-25 06:00:00,
2013-09-24 23:05:00,60.7,-99.9,29.88,NW,316,12.2,19.2,-999,-99.99,,,-99.99,,2013-09-25 06:05:00,
2013-09-24 23:10:00,60.5,-99.9,29.88,WNW,299,13.5,22.5,-999,-99.99,,,-99.99,,2013-09-25 06:10:00,
2013-09-24 23:15:00,60.5,-99.9,29.88,WNW,299,6.4,20.4,-999,-99.99,,,-99.99,,2013-09-25 06:15:00,
2013-09-24 23:20:00,60.6,-99.9,29.88,NW,313,7.7,15.0,-999,-99.99,,,-99.99,,2013-09-25 06:20:00,
2013-09-24 23:25:00,60.7,-99.9,29.88,West,262,11.1,13.2,-999,-99.99,,,-99.99,,2013-09-25 06:25:00,
2013-09-24 23:30:00,60.6,-99.9,29.88,NNW,340,7.6,15.4,-999,-99.99,,,-99.99,,2013-09-25 06:30:00,
2013-09-24 23:35:00,60.3,-99.9,29.88,North,359,8.2,18.3,-999,-99.99,,,-99.99,,2013-09-25 06:35:00,
2013-09-24 23:40:00,60.4,-99.9,29.88,WSW,237,0.0,8.9,-999,-99.99,,,-99.99,,2013-09-25 06:40:00,
2013-09-24 23:50:00,60.4,-99.9,29.88,West,279,0.0,0.0,-999,-99.99,,,-99.99,,2013-09-25 06:50:00,
2013-09-24 23:55:00,60.4,-99.9,29.87,WNW,303,0.0,0.0,-999,-99.99,,,-99.99,,2013-09-25 06:55:00,